Weather History for Worland, WY

Change the Weather History Date:

Saturday, January 26, 2013

  Actual Average Record
Temperature  
Mean Temperature 26 °F 18 °F  
Max Temperature 40 °F 32 °F 55 °F (1982)
Min Temperature 11 °F 5 °F -23 °F (2009)
Degree Days  
Heating Degree Days 39 47  
Month to date heating degree days 1342 1253  
Since 1 July heating degree days 4084 4616  
Cooling Degree Days 0 0  
Month to date cooling degree days 0 0  
Year to date cooling degree days 0 0  
Moisture  
Dew Point 18 °F    
Average Humidity 71    
Maximum Humidity 92    
Minimum Humidity 50    
Precipitation  
Precipitation 0.00 in 0.00 in 0.28 in (2003)
Month to date precipitation 0.04 0.19  
Year to date precipitation 0.04 0.19  
Sea Level Pressure  
Sea Level Pressure 29.97 in    
Wind  
Wind Speed 3 mph (SSW)    
Max Wind Speed 14 mph    
Max Gust Speed 17 mph    
Visibility 10 miles    
Events      
T = Trace of Precipitation, MM = Missing Value Source: NWS Daily Summary

Daily Weather History Graph

Daily Weather History Graph

Search for Another Location

Airport:

Trip Planner

Search our weather history database for the weather conditions in past years. The results will help you decide how hot, cold, wet, or windy it might be!

Date:

Astronomy

Jan. 26, 2013 Rise Set
Actual Time 7:34 AM MST 5:14 PM MST
Civil Twilight 7:03 AM MST 5:45 PM MST
Nautical Twilight 6:28 AM MST 6:20 PM MST
Astronomical Twilight 5:54 AM MST 6:54 PM MST
Moon 5:14 PM MST (1/26) 6:53 AM MST (1/26)
Length of Visible Light 10h 41m
Length of Day
9h 39m
Full, 100% of the Moon is Illuminated
Jan 26
Full
Jan 26
Full
Feb 3
Last Quarter
Feb 10
New
Feb 17
First Quarter

Hourly Weather History & Observations

Time (MST) Temp. Windchill Dew Point Humidity Pressure Visibility Wind Dir Wind Speed Gust Speed Precip Events Conditions
12:53 AM 19.9 °F 10.1 °F 16.0 °F 85% 30.08 in 10.0 mi South 8.1 mph - N/A   Clear
1:53 AM 12.9 °F 2.6 °F 10.0 °F 88% 30.09 in 10.0 mi SW 6.9 mph - N/A   Clear
2:53 AM 19.0 °F 12.3 °F 15.1 °F 85% 30.08 in 10.0 mi South 4.6 mph - N/A   Clear
3:53 AM 12.9 °F - 10.0 °F 88% 30.08 in 10.0 mi Calm Calm - N/A   Clear
4:53 AM 14.0 °F - 10.9 °F 88% 30.09 in 10.0 mi Calm Calm - N/A   Clear
5:53 AM 12.0 °F -2.7 °F 8.1 °F 84% 30.09 in 10.0 mi SSW 12.7 mph - N/A   Clear
6:53 AM 15.1 °F 9.4 °F 12.0 °F 88% 30.10 in 10.0 mi South 3.5 mph - N/A   Clear
7:53 AM 16.0 °F 6.3 °F 12.0 °F 84% 30.10 in 10.0 mi SW 6.9 mph - N/A   Clear
8:53 AM 19.0 °F 11.1 °F 15.1 °F 85% 30.08 in 10.0 mi SSW 5.8 mph - N/A   Clear
9:53 AM 21.9 °F 17.2 °F 17.1 °F 82% 30.07 in 10.0 mi West 3.5 mph - N/A   Clear
10:53 AM 28.9 °F 25.2 °F 19.9 °F 69% 30.04 in 10.0 mi ENE 3.5 mph - N/A   Clear
11:53 AM 30.0 °F - 21.0 °F 69% 30.00 in 10.0 mi Calm Calm - N/A   Clear
12:53 PM 34.0 °F - 23.0 °F 64% 29.94 in 10.0 mi Calm Calm - N/A   Clear
1:53 PM 36.0 °F - 24.1 °F 62% 29.92 in 10.0 mi Calm Calm - N/A   Clear
2:53 PM 39.9 °F - 23.0 °F 51% 29.87 in 10.0 mi Calm Calm - N/A   Clear
3:53 PM 35.1 °F 31.0 °F 26.1 °F 70% 29.89 in 10.0 mi NE 4.6 mph - N/A   Clear
4:53 PM 32.0 °F - 25.0 °F 75% 29.87 in 10.0 mi Calm Calm - N/A   Clear
5:53 PM 30.9 °F - 24.1 °F 76% 29.88 in 10.0 mi Calm Calm - N/A   Clear
6:53 PM 30.9 °F - 24.1 °F 76% 29.87 in 10.0 mi Calm Calm - N/A   Clear
7:53 PM 25.0 °F 20.7 °F 21.0 °F 85% 29.87 in 10.0 mi WNW 3.5 mph - N/A   Clear
8:53 PM 24.1 °F - 21.0 °F 88% 29.85 in 10.0 mi Calm Calm - N/A   Clear
9:53 PM 24.1 °F - 21.0 °F 88% 29.83 in 10.0 mi Calm Calm - N/A   Clear
10:53 PM 21.0 °F - 19.0 °F 92% 29.82 in 10.0 mi Calm Calm - N/A   Clear
11:53 PM 26.1 °F 20.5 °F 21.9 °F 84% 29.80 in 10.0 mi South 4.6 mph - N/A   Clear